This is the latest recevied weather packets stored in our database for station/object GW7110. If no packets are shown the sender has not sent any weather packets the latest 1 day(s).
| Time | Temp. | Humidity | Pressure | Rain* | Wind** | Luminosity | Snow |
|---|---|---|---|---|---|---|---|
| 1778040301 | 21.67° C | 60% | 29.9 hPa | 0 mm | 0.45 m/s, 295° | - | - |
| 1778040001 | 21.67° C | 60% | 29.9 hPa | 0 mm | 0.45 m/s, 260° | - | - |
| 1778039705 | 21.67° C | 59% | 29.9 hPa | 0 mm | 0.45 m/s, 222° | - | - |
| 1778039401 | 22.22° C | 59% | 29.9 hPa | 0 mm | 0.45 m/s, 257° | - | - |
| 1778039101 | 22.22° C | 59% | 29.9 hPa | 0 mm | 0.89 m/s, 212° | - | - |
| 1778038802 | 21.67° C | 59% | 29.9 hPa | 0 mm | 1.34 m/s, 204° | - | - |
| 1778038502 | 21.67° C | 59% | 29.9 hPa | 0 mm | 0.89 m/s, 239° | - | - |
| 1778038201 | 21.67° C | 59% | 29.9 hPa | 0 mm | 0.89 m/s, 195° | - | - |
| 1778037902 | 21.67° C | 59% | 29.9 hPa | 0 mm | 0.45 m/s, 215° | - | - |
| 1778037602 | 21.67° C | 59% | 29.9 hPa | 0 mm | 0.45 m/s, 224° | - | - |
| 1778037302 | 21.67° C | 59% | 29.9 hPa | 0 mm | 0 m/s | - | - |
| 1778037002 | 21.67° C | 59% | 29.9 hPa | 0 mm | 0.89 m/s, 211° | - | - |
| 1778036701 | 21.67° C | 59% | 29.9 hPa | 0 mm | 0.45 m/s, 283° | - | - |
| 1778036402 | 21.67° C | 58% | 29.9 hPa | 0 mm | 0.45 m/s, 280° | - | - |
| 1778036101 | 21.67° C | 58% | 29.9 hPa | 0 mm | 0.45 m/s, 212° | - | - |
| 1778035803 | 21.67° C | 58% | 29.9 hPa | 0 mm | 1.34 m/s, 196° | - | - |
| 1778035501 | 21.67° C | 58% | 29.9 hPa | 0 mm | 0.89 m/s, 194° | - | - |
| 1778035201 | 21.67° C | 58% | 29.9 hPa | 0 mm | 0.45 m/s, 233° | - | - |
| 1778034902 | 21.67° C | 58% | 29.9 hPa | 0 mm | 0.89 m/s, 206° | - | - |
| 1778034601 | 21.67° C | 58% | 29.9 hPa | 0 mm | 0 m/s | - | - |
| 1778034302 | 22.22° C | 58% | 29.9 hPa | 0 mm | 0 m/s | - | - |
| 1778034001 | 22.22° C | 58% | 29.9 hPa | 0 mm | 0.45 m/s, 208° | - | - |
| 1778033704 | 22.22° C | 58% | 29.9 hPa | 0 mm | 0 m/s | - | - |
| 1778033402 | 22.22° C | 57% | 29.9 hPa | 0 mm | 0.45 m/s, 140° | - | - |
| 1778033102 | 22.22° C | 57% | 29.9 hPa | 0 mm | 0.45 m/s, 258° | - | - |
* Rain latest hour (hover to see other rain measurements)
** Current wind speed in m/s (hover to see current wind gust speed)